,,,PA_Meas_PMT16A,,PR_Meas_QMR101_102,,RH_Meas_QMH101,,SR_Meas_QMS101,,TA_Meas_QMH101,,GenWind,,GenWind,
date,time,status,PA,status,PR,status,RH,status,SR,status,TA,status,DirAvg,status,SpdAvg,
2009-01-29, 00:00:04,VALID,999.324,VALID,0,VALID,96.0722,VALID,0.112286,VALID,23.5859,VALID,227,VALID,2.16133,
2009-01-29, 00:01:04,VALID,999.328,VALID,0,VALID,96.0645,VALID,0.112286,VALID,23.5646,VALID,206,VALID,1.65625,
2009-01-29, 00:02:04,VALID,999.295,VALID,0,VALID,96.0645,VALID,0,VALID,23.625,VALID,203,VALID,1.33906,
2009-01-29, 00:03:04,VALID,999.287,VALID,0,VALID,96.0798,VALID,0,VALID,23.6054,VALID,205,VALID,2.02773,
2009-01-29, 00:04:04,VALID,999.291,VALID,0,VALID,96.0874,VALID,0,VALID,23.625,VALID,196,VALID,1.77852,
2009-01-29, 00:05:04,VALID,999.243,VALID,0,VALID,96.0722,VALID,0,VALID,23.625,VALID,203,VALID,2.15156,
2009-01-29, 00:06:04,VALID,999.23,VALID,0,VALID,96.0493,VALID,0,VALID,23.6054,VALID,202,VALID,2.29922,
2009-01-29, 00:07:04,VALID,999.196,VALID,0,VALID,96.0417,VALID,0,VALID,23.5841,VALID,199,VALID,2.08398,
2009-01-29, 00:08:04,VALID,999.174,VALID,0,VALID,96.0264,VALID,0.112286,VALID,23.5841,VALID,198,VALID,2.37422,
2009-01-29, 00:09:04,VALID,999.152,VALID,0,VALID,96.0111,VALID,0,VALID,23.5646,VALID,201,VALID,2.14531,
2009-01-29, 00:10:04,VALID,999.138,VALID,0,VALID,96.034,VALID,0,VALID,23.6054,VALID,202,VALID,1.58555,
2009-01-29, 00:11:04,VALID,999.108,VALID,0,VALID,95.9883,VALID,0,VALID,23.5664,VALID,194,VALID,3.08164,
2009-01-29, 00:12:04,VALID,999.115,VALID,0,VALID,95.9806,VALID,0,VALID,23.5664,VALID,208,VALID,1.52891,
2009-01-29, 00:13:04,VALID,999.081,VALID,0,VALID,95.9577,VALID,0,VALID,23.5451,VALID,197,VALID,2.41484,
2009-01-29, 00:14:04,VALID,999.096,VALID,0,VALID,95.9577,VALID,0,VALID,23.5664,VALID,200,VALID,2.14375,
2009-01-29, 00:15:04,VALID,999.105,VALID,0,VALID,95.9425,VALID,0,VALID,23.5451,VALID,195,VALID,2.16133,
2009-01-29, 00:16:04,VALID,999.048,VALID,0,VALID,95.9272,VALID,0,VALID,23.5274,VALID,187,VALID,1.94805,
2009-01-29, 00:17:04,VALID,999.086,VALID,0,VALID,95.9425,VALID,0.112286,VALID,23.5256,VALID,192,VALID,2.30898,
2009-01-29, 00:18:04,VALID,999.073,VALID,0,VALID,95.9196,VALID,0,VALID,23.5256,VALID,199,VALID,2.63125,
2009-01-29, 00:19:04,VALID,999.044,VALID,0,VALID,95.9501,VALID,0,VALID,23.5664,VALID,204,VALID,2.10547,
2009-01-29, 00:20:04,VALID,999.032,VALID,0,VALID,95.9425,VALID,0,VALID,23.5469,VALID,195,VALID,1.94883,
2009-01-29, 00:21:04,VALID,999.046,VALID,0,VALID,95.9348,VALID,0,VALID,23.5256,VALID,205,VALID,1.91055,
2009-01-29, 00:22:04,VALID,999.051,VALID,0,VALID,95.912,VALID,0,VALID,23.5469,VALID,203,VALID,2.23555,
2009-01-29, 00:23:04,VALID,999.041,VALID,0,VALID,95.8967,VALID,0,VALID,23.5274,VALID,207,VALID,1.6332,
2009-01-29, 00:24:04,VALID,999.042,VALID,0,VALID,95.9043,VALID,0,VALID,23.5274,VALID,214,VALID,1.46914,
2009-01-29, 00:25:04,VALID,999.004,VALID,0,VALID,95.9272,VALID,0,VALID,23.5274,VALID,206,VALID,1.59844,
2009-01-29, 00:26:04,VALID,998.992,VALID,0,VALID,95.8967,VALID,0,VALID,23.4866,VALID,200,VALID,1.89883,
2009-01-29, 00:27:04,VALID,998.977,VALID,0,VALID,95.9272,VALID,0,VALID,23.5274,VALID,206,VALID,1.58828,
2009-01-29, 00:28:04,VALID,998.942,VALID,0,VALID,95.9043,VALID,0,VALID,23.5079,VALID,204,VALID,1.66836,
2009-01-29, 00:29:04,VALID,998.944,VALID,0,VALID,95.9043,VALID,0,VALID,23.4884,VALID,205,VALID,1.54062,
2009-01-29, 00:30:04,VALID,998.943,VALID,0,VALID,95.8814,VALID,0,VALID,23.4866,VALID,197,VALID,1.69062,
2009-01-29, 00:31:04,VALID,998.918,VALID,0,VALID,95.9272,VALID,0,VALID,23.4866,VALID,193,VALID,1.41172,
2009-01-29, 00:32:04,VALID,998.902,VALID,0,VALID,95.9043,VALID,0,VALID,23.4884,VALID,198,VALID,1.62539,
2009-01-29, 00:33:04,VALID,998.886,VALID,0,VALID,95.9043,VALID,0,VALID,23.4884,VALID,197,VALID,1.21914,
2009-01-29, 00:34:04,VALID,998.871,VALID,0,VALID,95.912,VALID,0,VALID,23.4884,VALID,192,VALID,1.6875,
2009-01-29, 00:35:04,VALID,998.847,VALID,0,VALID,95.9196,VALID,0,VALID,23.4884,VALID,179,VALID,1.30977,
2009-01-29, 00:36:04,VALID,998.873,VALID,0,VALID,95.9196,VALID,0,VALID,23.4884,VALID,171,VALID,1.4375,
2009-01-29, 00:37:04,VALID,998.879,VALID,0,VALID,95.9425,VALID,0,VALID,23.4884,VALID,180,VALID,1.96797,
2009-01-29, 00:38:04,VALID,998.821,VALID,0,VALID,95.8967,VALID,0,VALID,23.4688,VALID,181,VALID,2.30352,
2009-01-29, 00:39:04,VALID,998.833,VALID,0,VALID,95.8891,VALID,0,VALID,23.4475,VALID,184,VALID,2.17578,
2009-01-29, 00:40:04,VALID,998.801,VALID,0,VALID,95.8891,VALID,0,VALID,23.4688,VALID,184,VALID,1.80664,
2009-01-29, 00:41:04,VALID,998.796,VALID,0,VALID,95.9348,VALID,0,VALID,23.5079,VALID,180,VALID,1.70547,
2009-01-29, 00:42:04,VALID,998.774,VALID,0,VALID,95.9501,VALID,0,VALID,23.5079,VALID,183,VALID,1.52383,
2009-01-29, 00:43:04,VALID,998.768,VALID,0,VALID,95.8967,VALID,0,VALID,23.4884,VALID,178,VALID,1.84766,
2009-01-29, 00:44:04,VALID,998.773,VALID,0,VALID,95.8662,VALID,0,VALID,23.4688,VALID,194,VALID,1.81797,
2009-01-29, 00:45:04,VALID,998.743,VALID,0,VALID,95.8967,VALID,0,VALID,23.4884,VALID,181,VALID,2.14648,
2009-01-29, 00:46:04,VALID,998.75,VALID,0,VALID,95.8357,VALID,0,VALID,23.4688,VALID,182,VALID,2.11992,
2009-01-29, 00:47:04,VALID,998.759,VALID,0,VALID,95.8585,VALID,0,VALID,23.4688,VALID,195,VALID,1.78047,
2009-01-29, 00:48:04,VALID,998.759,VALID,0,VALID,95.8509,VALID,0,VALID,23.4475,VALID,184,VALID,1.98633,
2009-01-29, 00:49:04,VALID,998.761,VALID,0,VALID,95.8357,VALID,0,VALID,23.4493,VALID,188,VALID,1.97578,
2009-01-29, 00:50:04,VALID,998.743,VALID,0,VALID,95.8433,VALID,0,VALID,23.4706,VALID,180,VALID,1.6918,
2009-01-29, 00:51:04,VALID,998.751,VALID,0,VALID,95.8509,VALID,0,VALID,23.4688,VALID,195,VALID,1.62578,
2009-01-29, 00:52:04,VALID,998.756,VALID,0,VALID,95.8967,VALID,0,VALID,23.5097,VALID,184,VALID,1.27148,
2009-01-29, 00:53:04,VALID,998.725,VALID,0,VALID,95.8662,VALID,0,VALID,23.4688,VALID,200,VALID,1.94805,
2009-01-29, 00:54:04,VALID,998.727,VALID,0,VALID,95.8585,VALID,0,VALID,23.4688,VALID,200,VALID,1.72109,
2009-01-29, 00:55:04,VALID,998.719,VALID,0,VALID,95.8509,VALID,0,VALID,23.4688,VALID,211,VALID,1.52617,
2009-01-29, 00:56:04,VALID,998.699,VALID,0,VALID,95.8128,VALID,0,VALID,23.4493,VALID,197,VALID,1.71367,
2009-01-29, 00:57:04,VALID,998.694,VALID,0,VALID,95.8357,VALID,0,VALID,23.4493,VALID,209,VALID,1.34687,
2009-01-29, 00:58:04,VALID,998.653,VALID,0,VALID,95.8204,VALID,0,VALID,23.4298,VALID,185,VALID,1.68867,
2009-01-29, 00:59:04,VALID,998.644,VALID,0,VALID,95.8433,VALID,0,VALID,23.4511,VALID,197,VALID,1.44844,
2009-01-29, 01:00:04,VALID,998.607,VALID,0,VALID,95.8128,VALID,0,VALID,23.4298,VALID,202,VALID,1.79023,
2009-01-29, 01:01:04,VALID,998.605,VALID,0,VALID,95.8204,VALID,0,VALID,23.4103,VALID,192,VALID,1.6168,
2009-01-29, 01:02:04,VALID,998.587,VALID,0,VALID,95.8051,VALID,0,VALID,23.4103,VALID,210,VALID,1.14609,
2009-01-29, 01:03:04,VALID,998.57,VALID,0,VALID,95.7975,VALID,0,VALID,23.3908,VALID,199,VALID,1.29844,
2009-01-29, 01:04:04,VALID,998.551,VALID,0,VALID,95.8128,VALID,0,VALID,23.3713,VALID,199,VALID,1.47695,
2009-01-29, 01:05:04,VALID,998.569,VALID,0,VALID,95.7746,VALID,0,VALID,23.3731,VALID,185,VALID,1.74805,
2009-01-29, 01:06:04,VALID,998.548,VALID,0,VALID,95.767,VALID,0,VALID,23.3731,VALID,196,VALID,1.68242,
2009-01-29, 01:07:04,VALID,998.562,VALID,0,VALID,95.7899,VALID,0,VALID,23.3518,VALID,195,VALID,1.70977,
2009-01-29, 01:08:04,VALID,998.555,VALID,0,VALID,95.7899,VALID,0,VALID,23.3323,VALID,200,VALID,1.225,
2009-01-29, 01:09:04,VALID,998.557,VALID,0,VALID,95.7899,VALID,0,VALID,23.3323,VALID,191,VALID,1.16367,
2009-01-29, 01:10:04,VALID,998.525,VALID,0,VALID,95.7975,VALID,0,VALID,23.3323,VALID,200,VALID,1.28711,
2009-01-29, 01:11:04,VALID,998.534,VALID,0,VALID,95.8128,VALID,0,VALID,23.2915,VALID,201,VALID,0.773047,
2009-01-29, 01:12:04,VALID,998.53,VALID,0,VALID,95.8357,VALID,0,VALID,23.3323,VALID,225,VALID,0.703516,
2009-01-29, 01:13:04,VALID,998.502,VALID,0,VALID,95.8357,VALID,0,VALID,23.3127,VALID,204,VALID,0.828906,
2009-01-29, 01:14:04,VALID,998.477,VALID,0,VALID,95.8662,VALID,0,VALID,23.2932,VALID,201,VALID,0.85625,
2009-01-29, 01:15:04,VALID,998.47,VALID,0,VALID,95.8814,VALID,0,VALID,23.2932,VALID,199,VALID,0.584375,
2009-01-29, 01:16:04,VALID,998.484,VALID,0,VALID,95.9043,VALID,0,VALID,23.3145,VALID,189,VALID,1.39258,
2009-01-29, 01:17:04,VALID,998.439,VALID,0,VALID,95.9043,VALID,0,VALID,23.3127,VALID,166,VALID,1.09219,
2009-01-29, 01:18:04,VALID,998.444,VALID,0,VALID,95.8967,VALID,0,VALID,23.2932,VALID,176,VALID,1.12031,
2009-01-29, 01:19:04,VALID,998.456,VALID,0,VALID,95.9272,VALID,0,VALID,23.2932,VALID,159,VALID,1.46953,
2009-01-29, 01:20:04,VALID,998.435,VALID,0,VALID,95.9196,VALID,0,VALID,23.2932,VALID,173,VALID,1.20469,
2009-01-29, 01:21:04,VALID,998.418,VALID,0,VALID,95.912,VALID,0,VALID,23.2737,VALID,169,VALID,1.33281,
2009-01-29, 01:22:04,VALID,998.426,VALID,0,VALID,95.9348,VALID,0,VALID,23.2737,VALID,165,VALID,0.817578,
2009-01-29, 01:23:04,VALID,998.414,VALID,0,VALID,95.9348,VALID,0,VALID,23.2737,VALID,180,VALID,0.965625,
2009-01-29, 01:24:04,VALID,998.397,VALID,0,VALID,95.9272,VALID,0,VALID,23.2542,VALID,190,VALID,0.798828,
2009-01-29, 01:25:04,VALID,998.398,VALID,0,VALID,95.9425,VALID,0,VALID,23.2542,VALID,190,VALID,0.740234,
2009-01-29, 01:26:04,VALID,998.388,VALID,0,VALID,95.9425,VALID,0,VALID,23.2542,VALID,184,VALID,0.558594,
2009-01-29, 01:27:04,VALID,998.424,VALID,0,VALID,95.9883,VALID,0,VALID,23.2542,VALID,184,VALID,0.302734,
2009-01-29, 01:28:04,VALID,998.427,VALID,0,VALID,96.0035,VALID,0,VALID,23.2152,VALID,184,VALID,0.00585938,
2009-01-29, 01:29:04,VALID,998.386,VALID,0,VALID,95.9883,VALID,0,VALID,23.2152,VALID,184,VALID,0,
2009-01-29, 01:30:04,VALID,998.386,VALID,0,VALID,96.0111,VALID,0,VALID,23.2152,VALID,184,VALID,0.1875,
2009-01-29, 01:31:04,VALID,998.377,VALID,0,VALID,96.0035,VALID,0,VALID,23.1957,VALID,184,VALID,0.192578,
2009-01-29, 01:32:04,VALID,998.372,VALID,0,VALID,96.0188,VALID,0,VALID,23.1744,VALID,184,VALID,0,
2009-01-29, 01:33:04,VALID,998.326,VALID,0,VALID,96.0188,VALID,0,VALID,23.1957,VALID,183,VALID,0.754687,
2009-01-29, 01:34:04,VALID,998.313,VALID,0,VALID,96.0188,VALID,0,VALID,23.1779,VALID,179,VALID,0.427734,
2009-01-29, 01:35:04,VALID,998.295,VALID,0,VALID,96.0188,VALID,0,VALID,23.1371,VALID,179,VALID,0.353516,
2009-01-29, 01:36:04,VALID,998.279,VALID,0,VALID,96.0417,VALID,0,VALID,23.1566,VALID,171,VALID,0.576563,
2009-01-29, 01:37:04,VALID,998.29,VALID,0,VALID,96.0645,VALID,0,VALID,23.1566,VALID,166,VALID,0.392969,
2009-01-29, 01:38:04,VALID,998.26,VALID,0,VALID,96.0874,VALID,0,VALID,23.1566,VALID,166,VALID,0.495703,
2009-01-29, 01:39:04,VALID,998.271,VALID,0,VALID,96.0874,VALID,0,VALID,23.1566,VALID,166,VALID,0.496094,
2009-01-29, 01:40:04,VALID,998.259,VALID,0,VALID,96.0798,VALID,0,VALID,23.1371,VALID,166,VALID,0.540625,
2009-01-29, 01:41:04,VALID,998.271,VALID,0,VALID,96.0798,VALID,0,VALID,23.1584,VALID,166,VALID,0.341016,
2009-01-29, 01:42:04,VALID,998.283,VALID,0,VALID,96.0951,VALID,0,VALID,23.1566,VALID,166,VALID,0.147656,
2009-01-29, 01:43:04,VALID,998.24,VALID,0,VALID,96.0874,VALID,0,VALID,23.1566,VALID,166,VALID,0,
2009-01-29, 01:44:04,VALID,998.237,VALID,0,VALID,96.0722,VALID,0,VALID,23.1371,VALID,166,VALID,0,
2009-01-29, 01:45:04,VALID,998.232,VALID,0,VALID,96.0951,VALID,0,VALID,23.1176,VALID,166,VALID,0,
2009-01-29, 01:46:04,VALID,998.22,VALID,0,VALID,96.0874,VALID,0,VALID,23.1176,VALID,166,VALID,0.132422,
2009-01-29, 01:47:04,VALID,998.231,VALID,0,VALID,96.1027,VALID,0,VALID,23.1176,VALID,166,VALID,0.177734,
2009-01-29, 01:48:04,VALID,998.205,VALID,0,VALID,96.0798,VALID,0,VALID,23.1176,VALID,166,VALID,0.348828,
2009-01-29, 01:49:04,VALID,998.228,VALID,0,VALID,96.0798,VALID,0,VALID,23.0786,VALID,166,VALID,0.463672,
2009-01-29, 01:50:04,VALID,998.208,VALID,0,VALID,96.0874,VALID,0,VALID,23.0413,VALID,251,VALID,0.402734,
2009-01-29, 01:51:04,VALID,998.182,VALID,0,VALID,96.118,VALID,0,VALID,23.0413,VALID,267,VALID,0.517969,
2009-01-29, 01:52:04,VALID,998.155,VALID,0,VALID,96.1103,VALID,0,VALID,23.0608,VALID,267,VALID,0.51875,
2009-01-29, 01:53:04,VALID,998.158,VALID,0,VALID,96.1485,VALID,0,VALID,23.0608,VALID,268,VALID,0.639063,
2009-01-29, 01:54:04,VALID,998.152,VALID,0,VALID,96.1637,VALID,0,VALID,23.0396,VALID,268,VALID,0.409766,
2009-01-29, 01:55:04,VALID,998.182,VALID,0,VALID,96.1637,VALID,0,VALID,23.0608,VALID,270,VALID,0.598047,
2009-01-29, 01:56:04,VALID,998.178,VALID,0,VALID,96.1866,VALID,0,VALID,23.0608,VALID,270,VALID,0.425391,
2009-01-29, 01:57:04,VALID,998.135,VALID,0,VALID,96.1866,VALID,0,VALID,23.0413,VALID,270,VALID,0.359766,
2009-01-29, 01:58:04,VALID,998.117,VALID,0,VALID,96.179,VALID,0,VALID,23.0201,VALID,270,VALID,0,
2009-01-29, 01:59:04,VALID,998.077,VALID,0,VALID,96.1866,VALID,0,VALID,23.0218,VALID,270,VALID,0,
2009-01-29, 02:00:04,VALID,998.107,VALID,0,VALID,96.1866,VALID,0,VALID,23.0023,VALID,270,VALID,0,
2009-01-29, 02:01:04,VALID,998.081,VALID,0,VALID,96.1714,VALID,0,VALID,22.9828,VALID,270,VALID,0,
2009-01-29, 02:02:04,VALID,998.096,VALID,0,VALID,96.1943,VALID,0,VALID,22.9828,VALID,270,VALID,0,
2009-01-29, 02:03:04,VALID,998.079,VALID,0,VALID,96.2171,VALID,0,VALID,22.9828,VALID,270,VALID,0.255469,
2009-01-29, 02:04:04,VALID,998.063,VALID,0,VALID,96.2324,VALID,0,VALID,22.9828,VALID,270,VALID,0.440625,
2009-01-29, 02:05:04,VALID,998.05,VALID,0,VALID,96.2477,VALID,0,VALID,23.0006,VALID,6,VALID,0.555859,
2009-01-29, 02:06:04,VALID,998.075,VALID,0,VALID,96.2553,VALID,0,VALID,23.0006,VALID,6,VALID,0.639453,
2009-01-29, 02:07:04,VALID,998.067,VALID,0,VALID,96.2629,VALID,0,VALID,23.0201,VALID,6,VALID,0.73125,
2009-01-29, 02:08:04,VALID,998.056,VALID,0,VALID,96.3087,VALID,0,VALID,23.0396,VALID,31,VALID,0.705859,
2009-01-29, 02:09:04,VALID,998.036,VALID,0,VALID,96.2629,VALID,0,VALID,23.0396,VALID,31,VALID,0.702734,
2009-01-29, 02:10:04,VALID,998.065,VALID,0,VALID,96.24,VALID,0,VALID,23.0201,VALID,31,VALID,0.663281,
2009-01-29, 02:11:04,VALID,998.036,VALID,0,VALID,96.2171,VALID,0,VALID,22.9811,VALID,31,VALID,0.577734,
2009-01-29, 02:12:04,VALID,998.031,VALID,0,VALID,96.2477,VALID,0,VALID,22.9615,VALID,31,VALID,0.523047,
2009-01-29, 02:13:04,VALID,998.022,VALID,0,VALID,96.2477,VALID,0,VALID,23.0023,VALID,31,VALID,0.392188,
2009-01-29, 02:14:04,VALID,998.003,VALID,0,VALID,96.2553,VALID,0,VALID,22.9208,VALID,31,VALID,0.390234,
2009-01-29, 02:15:04,VALID,998.01,VALID,0,VALID,96.2858,VALID,0,VALID,22.9811,VALID,31,VALID,0.2375,
2009-01-29, 02:16:04,VALID,998.024,VALID,0,VALID,96.2553,VALID,0,VALID,22.9615,VALID,31,VALID,0.282031,
2009-01-29, 02:17:04,VALID,998.008,VALID,0,VALID,96.2553,VALID,0,VALID,22.9225,VALID,31,VALID,0.247656,
2009-01-29, 02:18:04,VALID,998.013,VALID,0,VALID,96.2553,VALID,0,VALID,22.942,VALID,31,VALID,0.175,
2009-01-29, 02:19:04,VALID,998.009,VALID,0,VALID,96.2477,VALID,0,VALID,22.9225,VALID,31,VALID,0.101953,
2009-01-29, 02:20:04,VALID,998.03,VALID,0,VALID,96.24,VALID,0,VALID,22.903,VALID,31,VALID,0,
2009-01-29, 02:21:04,VALID,998.01,VALID,0,VALID,96.2095,VALID,0,VALID,22.8835,VALID,31,VALID,0,
2009-01-29, 02:22:04,VALID,998.023,VALID,0,VALID,96.2324,VALID,0,VALID,22.8445,VALID,31,VALID,0,
2009-01-29, 02:23:04,VALID,998.025,VALID,0,VALID,96.24,VALID,0,VALID,22.8445,VALID,31,VALID,0.105859,
2009-01-29, 02:24:04,VALID,997.993,VALID,0,VALID,96.2782,VALID,0,VALID,22.8445,VALID,31,VALID,0.148438,
2009-01-29, 02:25:04,VALID,998.002,VALID,0,VALID,96.2629,VALID,0,VALID,22.825,VALID,31,VALID,0.173438,
2009-01-29, 02:26:04,VALID,997.999,VALID,0,VALID,96.3163,VALID,0,VALID,22.825,VALID,31,VALID,0.0976563,
2009-01-29, 02:27:04,VALID,998.037,VALID,0,VALID,96.3163,VALID,0,VALID,22.825,VALID,31,VALID,0,
2009-01-29, 02:28:04,VALID,998.04,VALID,0,VALID,96.3163,VALID,0,VALID,22.8445,VALID,31,VALID,0,
2009-01-29, 02:29:04,VALID,998.047,VALID,0,VALID,96.324,VALID,0,VALID,22.864,VALID,31,VALID,0,
2009-01-29, 02:30:04,VALID,998.044,VALID,0,VALID,96.3468,VALID,0,VALID,22.8835,VALID,31,VALID,0,
2009-01-29, 02:31:04,VALID,998.055,VALID,0,VALID,96.324,VALID,0,VALID,22.903,VALID,31,VALID,0,
2009-01-29, 02:32:04,VALID,998.02,VALID,0,VALID,96.3392,VALID,0,VALID,22.903,VALID,31,VALID,0,
2009-01-29, 02:33:04,VALID,998.058,VALID,0,VALID,96.3316,VALID,0,VALID,22.903,VALID,31,VALID,0,
2009-01-29, 02:34:04,VALID,998.033,VALID,0,VALID,96.2934,VALID,0,VALID,22.8835,VALID,31,VALID,0,
2009-01-29, 02:35:04,VALID,998.025,VALID,0,VALID,96.3392,VALID,0,VALID,22.903,VALID,31,VALID,0,
2009-01-29, 02:36:04,VALID,998.043,VALID,0,VALID,96.3545,VALID,0,VALID,22.8835,VALID,31,VALID,0,
2009-01-29, 02:37:04,VALID,998.049,VALID,0,VALID,96.3621,VALID,0.112286,VALID,22.903,VALID,31,VALID,0,
2009-01-29, 02:38:04,VALID,998.057,VALID,0,VALID,96.4003,VALID,0,VALID,22.903,VALID,31,VALID,0,
2009-01-29, 02:39:04,VALID,998.041,VALID,0,VALID,96.3621,VALID,0,VALID,22.9225,VALID,31,VALID,0,
2009-01-29, 02:40:04,VALID,998.041,VALID,0,VALID,96.3468,VALID,0,VALID,22.9225,VALID,31,VALID,0,
2009-01-29, 02:41:04,VALID,998.057,VALID,0,VALID,96.3621,VALID,0,VALID,22.903,VALID,31,VALID,0,
2009-01-29, 02:42:04,VALID,998.078,VALID,0,VALID,96.3697,VALID,0.112286,VALID,22.903,VALID,31,VALID,0,
2009-01-29, 02:43:04,VALID,998.061,VALID,0,VALID,96.3697,VALID,0,VALID,22.903,VALID,31,VALID,0,
2009-01-29, 02:44:04,VALID,998.09,VALID,0,VALID,96.3545,VALID,0,VALID,22.903,VALID,31,VALID,0.198437,
2009-01-29, 02:45:04,VALID,998.091,VALID,0,VALID,96.3774,VALID,0,VALID,22.9225,VALID,31,VALID,0.380859,
2009-01-29, 02:46:04,VALID,998.109,VALID,0,VALID,96.4231,VALID,0,VALID,22.9225,VALID,31,VALID,0.417188,
2009-01-29, 02:47:04,VALID,998.111,VALID,0,VALID,96.4003,VALID,0,VALID,22.9615,VALID,31,VALID,0.522266,
2009-01-29, 02:48:04,VALID,998.121,VALID,0,VALID,96.4003,VALID,0,VALID,22.942,VALID,79,VALID,0.647266,
2009-01-29, 02:49:04,VALID,998.175,VALID,0,VALID,96.4079,VALID,0.112286,VALID,22.9811,VALID,98,VALID,0.701953,
2009-01-29, 02:50:04,VALID,998.162,VALID,0,VALID,96.3926,VALID,0,VALID,22.9615,VALID,104,VALID,0.786328,
2009-01-29, 02:51:04,VALID,998.167,VALID,0,VALID,96.4003,VALID,0,VALID,22.9615,VALID,104,VALID,0.84375,
2009-01-29, 02:52:04,VALID,998.183,VALID,0,VALID,96.3774,VALID,0,VALID,22.942,VALID,110,VALID,0.875391,
2009-01-29, 02:53:04,VALID,998.207,VALID,0,VALID,96.385,VALID,0,VALID,22.9013,VALID,111,VALID,0.800391,
2009-01-29, 02:54:04,VALID,998.201,VALID,0,VALID,96.3621,VALID,0,VALID,22.9225,VALID,111,VALID,0.733203,
2009-01-29, 02:55:04,VALID,998.201,VALID,0,VALID,96.4003,VALID,0.112286,VALID,22.903,VALID,113,VALID,0.666406,
2009-01-29, 02:56:04,VALID,998.214,VALID,0,VALID,96.4003,VALID,0,VALID,22.8835,VALID,114,VALID,0.634766,
2009-01-29, 02:57:04,VALID,998.223,VALID,0,VALID,96.3926,VALID,0,VALID,22.8818,VALID,114,VALID,0.622266,
2009-01-29, 02:58:04,VALID,998.227,VALID,0,VALID,96.4003,VALID,0.112286,VALID,22.8623,VALID,113,VALID,0.630859,
2009-01-29, 02:59:04,VALID,998.263,VALID,0,VALID,96.3926,VALID,0.112286,VALID,22.8623,VALID,106,VALID,0.679297,
2009-01-29, 03:00:04,VALID,998.316,VALID,0,VALID,96.3926,VALID,0,VALID,22.864,VALID,93,VALID,0.864062,
2009-01-29, 03:01:04,VALID,998.315,VALID,0,VALID,96.3926,VALID,0,VALID,22.864,VALID,92,VALID,0.776172,
2009-01-29, 03:02:04,VALID,998.34,VALID,0,VALID,96.3697,VALID,0,VALID,22.8445,VALID,91,VALID,0.780078,
2009-01-29, 03:03:04,VALID,998.342,VALID,0,VALID,96.3774,VALID,0.112286,VALID,22.8037,VALID,83,VALID,0.613281,
2009-01-29, 03:04:04,VALID,998.37,VALID,0,VALID,96.3697,VALID,0,VALID,22.786,VALID,81,VALID,0.704687,
2009-01-29, 03:05:04,VALID,998.345,VALID,0,VALID,96.3697,VALID,0,VALID,22.7664,VALID,81,VALID,0.621875,
2009-01-29, 03:06:04,VALID,998.377,VALID,0,VALID,96.4155,VALID,0.112286,VALID,22.7664,VALID,80,VALID,0.696094,
2009-01-29, 03:07:04,VALID,998.391,VALID,0,VALID,96.385,VALID,0.112286,VALID,22.7469,VALID,75,VALID,0.738281,
2009-01-29, 03:08:04,VALID,998.413,VALID,0,VALID,96.385,VALID,0,VALID,22.7274,VALID,75,VALID,0.737109,
2009-01-29, 03:09:04,VALID,998.428,VALID,0,VALID,96.4231,VALID,0,VALID,22.7274,VALID,75,VALID,0.754297,
2009-01-29, 03:10:04,VALID,998.458,VALID,0,VALID,96.3697,VALID,0.112286,VALID,22.7079,VALID,75,VALID,0.457812,
2009-01-29, 03:11:04,VALID,998.453,VALID,0,VALID,96.3697,VALID,0,VALID,22.6884,VALID,74,VALID,0.442578,
2009-01-29, 03:12:04,VALID,998.499,VALID,0,VALID,96.3926,VALID,0,VALID,22.6494,VALID,74,VALID,0.0527344,
2009-01-29, 03:13:04,VALID,998.48,VALID,0,VALID,96.3926,VALID,0,VALID,22.6494,VALID,31,VALID,0.444141,
2009-01-29, 03:14:04,VALID,998.51,VALID,0,VALID,96.4384,VALID,0,VALID,22.6884,VALID,337,VALID,0.578125,
2009-01-29, 03:15:04,VALID,998.501,VALID,0,VALID,96.4155,VALID,0,VALID,22.6884,VALID,337,VALID,0.26875,
2009-01-29, 03:16:04,VALID,998.491,VALID,0,VALID,96.446,VALID,0,VALID,22.6867,VALID,334,VALID,0.370313,
2009-01-29, 03:17:04,VALID,998.483,VALID,0,VALID,96.4613,VALID,0.112286,VALID,22.7469,VALID,334,VALID,0.403906,
2009-01-29, 03:18:04,VALID,998.483,VALID,0,VALID,96.4765,VALID,0,VALID,22.8055,VALID,334,VALID,0.270312,
2009-01-29, 03:19:04,VALID,998.469,VALID,0,VALID,96.4842,VALID,0,VALID,22.864,VALID,334,VALID,0.0117188,
2009-01-29, 03:20:04,VALID,998.497,VALID,0,VALID,96.4765,VALID,0.112286,VALID,22.8835,VALID,334,VALID,0,
2009-01-29, 03:21:04,VALID,998.493,VALID,0,VALID,96.4842,VALID,0.112286,VALID,22.9225,VALID,334,VALID,0.241406,
2009-01-29, 03:22:04,VALID,998.533,VALID,0,VALID,96.4689,VALID,0.112286,VALID,22.942,VALID,334,VALID,0.245312,
2009-01-29, 03:23:04,VALID,998.542,VALID,0,VALID,96.4765,VALID,0.112286,VALID,22.9403,VALID,334,VALID,0.250781,
2009-01-29, 03:24:04,VALID,998.542,VALID,0,VALID,96.4842,VALID,0.112286,VALID,22.9793,VALID,334,VALID,0.0769531,
2009-01-29, 03:25:04,VALID,998.586,VALID,0,VALID,96.4765,VALID,0.112286,VALID,23.0201,VALID,334,VALID,0,
2009-01-29, 03:26:04,VALID,998.592,VALID,0,VALID,96.4537,VALID,0.112286,VALID,23.0006,VALID,334,VALID,0,
2009-01-29, 03:27:04,VALID,998.599,VALID,0,VALID,96.4384,VALID,0.112286,VALID,22.9615,VALID,334,VALID,0,
2009-01-29, 03:28:04,VALID,998.617,VALID,0,VALID,96.4537,VALID,0,VALID,22.9615,VALID,334,VALID,0.211719,
2009-01-29, 03:29:04,VALID,998.621,VALID,0,VALID,96.4613,VALID,0,VALID,22.942,VALID,334,VALID,0.130859,
2009-01-29, 03:30:04,VALID,998.62,VALID,0,VALID,96.446,VALID,0.112286,VALID,22.942,VALID,334,VALID,0.0242187,
2009-01-29, 03:31:04,VALID,998.606,VALID,0,VALID,96.446,VALID,0,VALID,22.9225,VALID,334,VALID,0,
2009-01-29, 03:32:04,VALID,998.656,VALID,0,VALID,96.4308,VALID,0.112286,VALID,22.8818,VALID,334,VALID,0.00078125,
2009-01-29, 03:33:04,VALID,998.645,VALID,0,VALID,96.4308,VALID,0,VALID,22.903,VALID,334,VALID,0.189063,
2009-01-29, 03:34:04,VALID,998.665,VALID,0,VALID,96.4308,VALID,0,VALID,22.8623,VALID,334,VALID,0,
2009-01-29, 03:35:04,VALID,998.657,VALID,0,VALID,96.385,VALID,0,VALID,22.8267,VALID,334,VALID,0.274609,
2009-01-29, 03:36:04,VALID,998.632,VALID,0,VALID,96.3774,VALID,0,VALID,22.8072,VALID,334,VALID,0.241797,
2009-01-29, 03:37:04,VALID,998.638,VALID,0,VALID,96.3697,VALID,0,VALID,22.7487,VALID,334,VALID,0.261719,
2009-01-29, 03:38:04,VALID,998.626,VALID,0,VALID,96.385,VALID,0,VALID,22.6884,VALID,334,VALID,0.0929687,
2009-01-29, 03:39:04,VALID,998.623,VALID,0,VALID,96.385,VALID,0,VALID,22.6494,VALID,334,VALID,0.162109,
2009-01-29, 03:40:04,VALID,998.609,VALID,0,VALID,96.446,VALID,0,VALID,22.6494,VALID,334,VALID,0.059375,
2009-01-29, 03:41:04,VALID,998.611,VALID,0,VALID,96.4765,VALID,0,VALID,22.6689,VALID,334,VALID,0,
2009-01-29, 03:42:04,VALID,998.613,VALID,0,VALID,96.5223,VALID,0,VALID,22.7274,VALID,334,VALID,0,
2009-01-29, 03:43:04,VALID,998.654,VALID,0,VALID,96.4842,VALID,0,VALID,22.7487,VALID,334,VALID,0.342578,
2009-01-29, 03:44:04,VALID,998.678,VALID,0,VALID,96.446,VALID,0,VALID,22.6901,VALID,334,VALID,0.345703,
2009-01-29, 03:45:04,VALID,998.708,VALID,0,VALID,96.446,VALID,0,VALID,22.6706,VALID,334,VALID,0.288281,
2009-01-29, 03:46:04,VALID,998.687,VALID,0,VALID,96.4689,VALID,0,VALID,22.6494,VALID,334,VALID,0.225391,